Location: ?
(35.3544°N, 139.4507°E)
Time: 05:28:47
(UTC+00:00)

CZ-2C R/B - Pass Details

Date: 03 August 2024
Orbit: 703 x 904 km, 98.2° (Epoch: 10 September)

Event Time Altitude Azimuth Distance (km) Brightness Sun altitude
Rises 16:07:17 0° 20° (NNE) 3,151 7.2 -34.2°
Reaches altitude 10° 16:09:38 10° 28° (NNE) 2,248 6.2 -34.0°
Enters shadow 16:12:43 33° 56° (NE) 1,256 4.4 -33.7°
